NOAA 16 DEB, 41057

Orbit data source: Space-Track

NOAA 16 DEB, 41057 is space debris in SSO originally from a launch on Thu, 21 Sep 2000 UTC launched from the Air Force Western Test Range (AFWTR). Debris objects in space refer to the collection of defunct objects orbiting the Earth. Examples of debris include non-operational satellites, rocket bodies, and fragments generated from explosions, collisions, or faulty payload assembly.

Loading next visibility...
Identifier
41057, 2000-055Q
Orbit
SSO
Country
Flag of USUS
Related business
Manufacturer
Unknown
Mission
Spacecraft
Bus & Motor
Unknown
Mass
Unknown
Launch date (UTC)
2000-09-21 (25 years ago)
Launch vehicle
Unknown
Launch site
Air Force Western Test Range (AFWTR)
Object type
Payload
Rocket body
Debris
Shape & HBR
Unknown shape, 0.2 m
Radar Cross Section
Small (<0.1 m²)

Expand to show TLE details & history
Last TLE update: 9 hours ago

TLE from 9 hours ago
0 NOAA 16 DEB
1 41057U 00055Q   26036.92183101  .00011108  00000-0  33615-2 0  9990
2 41057  98.9365 195.1025 0020822 208.0013 152.0056 14.42362723529638
Epoch: 2026-02-05T22:07Z
TLE epoch observation values (Epoch: 2026-02-05T22:07:26.199Z)
Latitude
-0.00005°
Longitude
87.17623°
Altitude
766.757 km
Speed
7.464 km/s
True Right ascension
13h 00m 24s
True Declination
0° 00' 00"
Sunlit
Object was in full shadow at epoch
Visualization orbit readout
Latitude
Unknown
Longitude
Unknown
Altitude
Unknown
Speed
Unknown
Apparent Right ascension
Unknown
Apparent Declination
Unknown
Sunlit
N/A
Visualization observer readout
Local Sidereal Time
09:33:16
Azimuth
Unknown
Elevation
Unknown
Doppler factor
Unknown
Orbital elements
Apogee altitude
762.68 km
Perigee altitude
733.005 km
Semi-major axis
7,125.98 km
Eccentricity
0.00208
Inclination
98.9365°
RAAN
195.1025°
Arg. of periapsis
208.0013°
True anomaly
152.11734°
Mean anomaly
152.0056°
Eccentric anomaly
152.0615°
Mean motion
3.60808 °/min
Orbital period
99.78 mins
BSTAR
0.0033615
Loading maneuver chart data...
Computing Atmospheric mass density...
Loading historical data...
Loading historical data...
Loading historical data...
Loading historical data...
Loading historical data...
Loading historical data...
Loading historical data...

Documentation

Showing up to 5 results
|